Theta_e
354 354 355 357 360 361 362 363 365 364 367 368 369 368 367 369 370 370 369 369 369 368 368 367 367 367 367 366 366 366 366 367 367 365 365 365 364 364 363 362 362 362 361 362 362 362 362 363 362 361 361 360 360 360 360 360 361 360 357 358 359 358 358 357 357 357 356 358 359 359 358 356 358 359 359 358 357 358 358 359 358 354 356 357 358
353 354 356 357 358 359 361 362 363 363 366 369 368 368 368 369 370 369 369 369 368 368 368 367 366 367 367 367 367 367 367 367 366 366 365 365 364 364 364 363 363 363 361 359 362 362 362 362 362 362 362 361 360 360 359 360 358 358 359 357 358 357 357 357 356 356 356 358 359 359 358 357 357 359 358 358 358 358 359 358 356 355 356 356 357
355 357 358 355 357 358 359 360 363 363 364 367 366 369 370 369 369 369 369 368 368 368 368 367 366 367 367 366 367 367 366 366 366 365 364 365 364 363 363 363 363 362 362 362 362 363 362 362 362 362 361 361 360 360 359 359 360 359 358 358 357 358 357 357 357 357 356 357 357 358 357 356 354 358 357 357 358 358 359 359 356 356 356 357 357
356 357 357 356 356 357 356 357 361 365 365 365 367 370 370 370 369 369 368 368 369 368 368 367 367 367 367 367 367 367 367 367 366 365 365 364 364 363 363 363 363 362 361 363 363 362 362 362 361 361 360 361 360 360 360 360 360 358 358 359 358 358 358 357 358 358 357 358 358 356 358 360 358 358 358 358 357 357 359 358 357 358 357 357 356
356 358 357 356 357 356 356 356 360 365 366 367 369 370 370 369 369 369 369 369 369 368 368 367 367 367 367 367 368 367 367 366 365 365 364 364 364 364 364 363 363 362 362 363 363 362 362 362 362 360 361 359 360 360 360 359 359 359 358 359 359 358 359 357 357 357 357 358 358 356 360 361 360 356 358 358 358 359 358 358 358 357 357 357 357
356 358 361 358 355 355 357 360 364 366 367 368 369 369 369 369 368 369 369 368 368 368 367 367 367 368 368 368 368 367 366 366 365 365 364 364 364 364 363 364 362 363 363 362 362 363 363 363 363 362 361 361 360 360 360 360 359 358 358 359 358 357 358 358 358 358 358 358 356 357 361 361 358 357 356 357 358 359 359 357 357 356 358 358 357
357 359 360 363 361 360 366 366 367 365 367 368 369 369 369 369 369 369 369 368 368 368 367 367 368 367 367 367 367 367 366 366 365 364 364 364 364 364 363 362 362 361 361 362 362 362 362 363 363 362 362 362 361 362 361 361 360 358 358 358 359 358 359 358 358 358 357 356 358 360 360 360 358 356 356 356 358 359 358 357 356 355 357 357 356
358 359 361 361 360 364 366 367 367 368 368 368 369 369 369 369 369 369 368 368 368 368 368 368 368 368 368 367 367 366 366 365 364 364 364 364 364 364 363 363 364 363 362 362 362 362 361 362 362 362 362 362 362 361 360 360 360 359 359 358 358 359 360 359 358 357 357 358 358 360 361 362 362 358 355 354 356 358 358 358 357 356 355 357 358
357 360 361 360 360 365 366 367 367 367 367 367 368 368 369 369 369 368 368 368 368 367 368 368 368 367 367 367 367 366 366 365 365 365 365 364 364 363 363 363 362 362 363 363 361 361 361 360 361 361 362 361 361 361 361 360 360 359 359 359 359 359 358 359 358 356 355 357 358 358 362 363 359 356 355 354 356 359 357 357 357 355 355 355 354
358 360 361 361 361 366 366 367 367 367 367 367 367 368 368 368 368 369 368 367 367 368 368 368 368 367 367 367 366 366 365 366 365 365 364 363 362 362 362 362 362 362 363 362 362 361 361 361 361 361 361 360 360 360 359 360 360 360 359 359 358 357 359 359 357 356 357 358 358 358 359 357 360 355 353 354 354 357 357 355 357 355 356 355 355
358 360 361 362 362 366 365 366 367 366 366 367 368 368 368 369 369 369 369 368 368 368 368 368 368 367 367 367 366 366 366 366 365 365 364 362 362 361 362 362 361 361 361 361 360 361 361 361 361 360 360 360 360 361 359 360 359 359 359 359 359 358 358 359 357 358 358 358 359 362 358 355 361 359 355 355 355 356 356 358 358 358 357 355 356
357 360 362 363 366 366 365 365 366 366 367 367 368 368 368 368 368 369 369 369 368 368 368 368 368 367 367 367 366 365 365 365 364 363 363 362 363 363 363 363 363 362 361 360 360 361 362 360 360 361 360 360 361 361 360 360 361 359 359 359 359 359 360 357 358 357 358 358 360 361 359 358 360 357 355 355 355 353 357 358 357 357 358 357 356
357 359 360 363 364 366 366 365 366 366 366 367 367 367 367 368 368 368 368 368 369 369 368 367 367 367 367 366 365 364 364 363 364 364 363 363 363 363 363 362 363 362 363 362 361 361 362 361 360 361 360 360 361 361 360 360 361 360 360 359 358 358 359 357 359 358 357 357 360 359 358 362 360 355 355 354 354 356 356 357 357 356 357 357 357
356 358 360 360 362 366 365 365 366 366 366 366 367 367 367 367 367 368 368 369 368 368 368 367 367 367 367 366 365 364 364 363 363 363 364 362 362 362 362 362 361 361 362 362 362 362 361 362 361 361 361 361 360 360 360 360 360 361 359 359 359 359 359 357 357 359 358 357 358 359 358 359 359 356 355 352 354 357 356 357 356 355 356 356 356
356 357 358 361 362 365 364 364 365 365 366 367 367 367 366 366 367 368 368 369 368 367 367 367 367 366 366 366 365 364 363 363 363 364 364 362 362 362 361 362 362 361 362 362 362 362 361 361 361 362 361 361 362 361 362 361 361 361 361 359 357 358 359 361 361 361 359 359 357 357 357 361 356 354 355 354 355 357 357 355 355 355 356 356 356
357 357 359 360 361 363 364 363 364 365 366 367 367 367 366 367 367 367 367 368 368 368 367 366 366 366 365 365 365 365 364 363 364 364 363 362 361 361 361 361 362 361 361 362 362 361 361 361 361 361 361 362 362 361 361 361 362 362 361 360 358 358 359 357 361 361 360 358 358 358 356 358 357 354 354 353 353 357 355 355 355 355 356 356 356
357 359 359 359 360 361 364 363 364 365 365 365 366 366 366 367 366 367 368 367 367 368 367 366 365 366 365 365 365 364 364 363 363 363 361 361 361 360 361 361 363 363 362 362 363 362 361 362 362 361 361 362 362 361 361 362 362 362 361 360 359 358 359 357 360 362 361 360 359 357 356 358 357 354 357 356 357 356 356 356 354 353 355 355 356
357 359 359 360 360 363 363 361 363 365 365 365 365 365 367 367 367 367 367 367 367 368 367 366 365 364 364 365 365 364 364 363 363 362 361 360 360 360 362 361 363 364 362 362 363 362 361 362 362 362 362 362 362 362 362 362 362 362 361 360 360 360 360 357 361 362 361 359 358 358 356 356 358 357 354 355 355 355 356 355 354 354 354 355 355
356 357 358 359 359 361 360 364 364 365 364 364 366 366 366 367 367 367 367 368 367 367 367 366 366 365 365 364 365 363 363 363 362 362 361 360 361 360 362 362 362 362 363 363 362 362 363 361 360 362 362 363 362 362 360 362 361 361 361 360 360 360 360 358 361 362 363 362 361 357 357 360 356 355 357 356 354 356 356 355 355 354 353 355 355
356 357 359 360 360 359 361 360 365 363 364 363 365 365 367 367 367 367 367 367 367 367 367 366 366 366 365 365 364 364 363 363 362 362 362 361 361 360 361 363 362 361 362 363 363 362 362 362 360 359 361 359 360 360 360 360 360 361 359 360 360 360 363 363 363 363 363 361 361 359 359 358 357 354 354 356 354 355 356 356 355 354 354 355 355
354 356 358 359 359 360 361 360 362 364 363 363 364 364 364 367 367 367 367 367 366 366 366 366 366 365 364 364 365 365 365 365 365 364 362 366 363 361 361 363 362 362 363 363 363 361 360 362 361 359 360 360 358 357 357 360 362 362 361 359 361 366 365 364 362 364 363 362 363 361 356 359 357 356 355 355 355 355 354 354 356 356 354 355 355
351 353 357 361 360 361 361 359 361 363 364 363 364 364 365 365 366 366 367 367 365 365 367 366 364 366 363 365 366 365 365 366 365 363 364 364 361 361 361 362 363 362 363 362 362 363 362 360 360 360 360 362 363 366 364 361 362 364 363 361 363 365 364 362 363 362 362 363 363 362 357 358 358 355 356 355 354 353 355 354 355 355 354 355 354
349 352 354 357 360 361 360 360 361 363 362 364 363 364 365 365 365 366 365 365 366 366 366 366 366 366 366 365 365 365 365 367 366 365 365 361 360 361 361 362 363 363 363 364 364 365 365 362 361 364 364 363 365 364 363 362 363 361 361 364 362 363 364 363 362 360 361 363 364 360 359 358 356 356 355 355 355 355 355 355 355 356 355 355 353
349 351 353 357 358 359 359 360 361 362 362 362 363 363 364 365 364 365 365 365 366 366 366 366 366 366 365 365 364 365 365 367 364 363 364 365 363 362 362 362 362 363 365 363 362 363 363 362 363 362 360 359 365 363 360 361 361 360 361 361 359 361 362 360 358 359 359 360 363 359 360 357 356 354 353 352 356 355 356 355 353 354 356 355 355
351 353 354 355 358 359 359 360 362 362 362 361 362 361 363 363 363 362 364 364 364 365 364 365 365 366 365 365 364 364 364 364 364 363 362 364 365 367 367 366 365 364 364 364 362 364 362 363 362 362 363 362 361 362 361 360 360 359 358 358 359 361 360 360 358 357 359 361 361 358 359 356 356 354 352 348 354 355 356 355 356 354 356 355 356
352 351 352 355 357 359 359 360 360 362 361 361 361 362 363 362 362 362 363 364 363 363 364 364 364 365 364 363 364 364 364 363 363 363 362 363 362 365 366 367 367 365 367 363 361 363 363 362 362 361 361 362 358 357 361 360 358 357 357 360 360 361 359 357 357 359 359 360 361 355 358 359 357 354 353 351 351 351 354 356 353 352 353 355 356
349 351 353 355 357 358 360 361 359 360 361 362 361 362 361 362 362 363 362 362 363 363 362 363 364 366 365 365 361 362 362 360 360 362 361 363 364 365 365 367 367 365 367 363 364 365 362 360 361 361 361 355 356 358 358 360 361 356 355 357 360 359 359 357 357 359 359 360 359 355 355 358 357 356 356 354 350 350 353 352 352 351 353 353 355
350 351 352 354 356 356 360 360 360 360 360 361 361 360 361 360 361 364 363 362 362 361 360 362 364 364 366 365 365 362 360 359 360 360 361 363 364 366 367 364 365 364 368 365 363 362 362 362 362 361 360 358 356 359 360 360 359 360 354 353 356 358 359 357 357 360 359 361 361 359 356 357 357 356 357 356 351 350 352 351 352 353 354 354 352
348 350 352 353 354 356 359 359 360 360 360 361 360 360 361 361 361 361 361 362 362 363 362 364 364 364 365 366 366 361 361 360 360 360 362 362 363 365 364 363 365 364 366 363 364 362 361 360 359 359 361 359 356 356 359 360 359 355 353 351 352 355 357 358 358 357 357 359 361 360 357 358 357 357 357 354 352 352 352 352 353 353 353 354 352
348 350 351 353 355 357 357 357 359 359 360 359 360 360 360 360 361 362 362 364 363 363 364 362 363 363 362 365 364 362 361 359 360 361 361 361 363 365 365 364 363 365 364 365 365 362 359 358 359 359 360 360 358 359 359 358 354 353 354 351 348 346 352 354 356 354 357 359 361 362 358 359 358 351 348 352 352 352 353 354 355 354 354 354 354
350 349 350 352 354 355 356 358 359 360 360 358 359 360 361 360 361 362 363 362 363 363 363 362 361 363 363 365 365 364 362 361 361 362 362 361 364 365 364 365 363 363 364 365 366 364 360 360 360 359 362 361 359 359 359 358 357 353 352 350 348 349 349 352 352 354 351 357 360 363 363 359 356 358 353 353 353 353 352 354 355 354 355 355 354
348 348 351 354 353 354 356 357 359 359 359 358 359 359 359 360 362 361 361 362 364 362 361 362 363 362 364 364 363 363 365 363 363 363 363 362 362 363 364 364 362 364 365 364 363 363 361 363 365 365 364 363 361 360 360 356 354 350 352 349 350 348 346 349 345 350 352 355 361 362 361 358 359 357 356 355 353 355 355 355 355 355 354 354 355
349 350 352 352 351 354 355 357 358 359 359 357 357 358 360 359 360 360 361 362 362 362 361 361 362 363 364 364 364 364 364 363 363 365 365 362 363 364 364 365 365 365 366 366 365 364 362 364 365 366 364 364 360 359 357 353 349 349 349 349 349 348 351 350 350 351 349 353 359 359 359 359 359 359 356 356 353 355 354 355 355 355 356 355 354
350 351 352 351 352 354 355 355 356 357 358 357 358 357 359 359 360 360 361 361 361 361 360 362 362 362 364 364 363 364 364 364 366 366 364 362 364 364 364 364 365 366 366 367 362 362 360 362 363 362 360 359 357 358 352 349 347 347 347 350 351 352 349 346 348 352 353 352 355 358 358 360 362 365 364 357 357 355 355 356 356 357 356 355 352
351 352 351 352 353 353 354 354 356 356 357 357 357 357 359 358 358 359 359 360 360 359 359 361 360 362 362 362 364 364 365 366 367 365 364 364 362 362 364 363 367 366 364 366 363 362 362 363 363 360 361 357 356 356 353 351 347 347 348 351 350 351 350 347 354 355 354 359 360 358 359 359 360 364 363 364 357 355 355 356 358 357 356 355 354
351 352 353 354 353 354 356 354 355 355 356 357 357 357 357 358 358 359 359 360 359 359 359 360 361 361 363 364 366 367 367 368 368 367 365 364 362 362 364 367 367 366 366 366 365 361 364 363 363 361 357 355 355 353 353 350 349 346 347 349 351 350 348 347 350 348 350 358 358 359 360 361 362 363 358 363 363 360 356 357 356 356 357 356 354
351 352 352 353 354 354 355 354 353 355 356 356 358 358 359 359 359 359 358 359 358 358 359 361 362 363 363 362 366 367 367 367 368 368 366 365 364 365 364 367 368 365 365 365 363 362 364 358 363 363 360 355 352 350 350 350 346 346 346 345 348 350 347 350 346 348 353 356 359 352 357 361 363 360 364 363 362 364 357 357 357 356 355 355 354
352 352 353 353 352 354 355 356 356 355 356 357 357 357 358 358 358 358 360 358 359 360 360 361 362 361 363 362 365 366 366 368 368 368 366 366 366 365 365 367 366 366 365 364 363 363 364 361 360 363 360 357 351 350 348 347 346 345 345 343 348 347 347 349 353 351 348 347 352 356 357 357 359 359 359 361 358 360 363 360 357 355 355 355 355
352 351 352 353 353 354 355 356 357 357 356 358 359 358 358 358 358 358 358 358 359 360 361 361 361 362 360 364 366 365 365 367 367 368 367 365 366 366 366 367 366 366 365 363 364 363 363 363 360 361 360 356 353 352 349 348 346 345 344 345 348 351 349 349 352 347 344 345 347 354 350 358 357 359 360 361 360 362 361 363 362 361 360 354 354
352 352 352 352 353 354 355 356 357 357 358 357 357 355 355 355 353 355 354 355 357 358 361 361 361 361 362 364 366 365 366 367 368 369 368 367 366 366 367 367 366 366 364 362 361 361 362 362 361 358 356 354 355 353 350 346 344 343 345 346 350 348 347 345 344 344 346 345 349 351 347 353 356 356 356 359 361 360 362 363 362 361 362 357 353
353 352 351 351 352 352 353 354 356 357 357 355 355 354 353 353 355 353 351 354 356 358 358 360 360 360 363 364 365 364 366 367 368 369 368 367 367 367 367 366 366 365 365 363 362 361 362 360 358 360 354 351 350 350 348 345 343 340 345 344 347 352 348 350 345 342 344 345 349 350 352 351 353 356 359 360 359 357 359 362 361 362 363 364 358
351 352 351 350 351 352 352 353 356 356 356 356 356 356 356 354 352 352 353 354 356 355 356 360 360 361 364 365 365 365 366 367 367 369 369 368 367 366 366 366 365 365 365 365 364 362 361 359 358 356 356 351 349 347 347 346 339 335 336 338 341 345 348 345 342 342 345 346 347 352 353 348 346 349 353 357 358 358 356 358 360 357 359 362 360
351 351 352 351 351 351 353 355 356 356 356 357 357 357 358 359 356 356 356 355 359 360 360 361 363 361 363 365 365 366 366 366 368 368 368 368 367 367 367 367 366 365 364 363 362 361 360 359 358 354 351 352 350 350 350 347 336 340 343 337 333 332 340 341 342 343 342 346 347 347 349 347 350 352 353 350 351 354 356 356 356 356 357 356 355
351 351 351 352 352 353 354 355 356 357 357 358 358 360 360 362 361 361 361 360 359 361 363 363 363 362 361 364 365 366 366 366 366 367 368 368 368 367 367 366 366 366 364 362 362 360 361 359 357 356 355 349 347 347 350 349 343 339 332 332 334 330 328 333 337 341 343 345 345 345 349 349 350 354 353 348 345 352 355 356 354 354 356 356 355
350 350 351 351 352 353 355 356 356 357 358 358 358 360 360 360 360 360 361 360 361 360 359 357 360 362 361 363 364 366 366 366 367 368 368 369 369 368 367 367 366 366 365 362 361 360 360 359 359 357 355 350 345 345 349 348 347 348 340 334 330 328 328 333 332 338 340 341 343 345 349 348 345 351 350 351 351 351 350 354 357 355 355 355 355
349 351 352 352 353 354 355 356 357 358 358 359 359 359 358 356 355 353 350 352 352 353 352 353 355 358 357 360 365 365 365 366 367 368 369 369 370 368 368 367 366 366 365 363 363 362 361 360 360 359 355 355 350 345 342 351 348 349 347 345 342 333 331 337 333 330 342 341 344 344 347 345 348 349 351 350 348 347 350 351 354 356 356 355 353
350 352 353 353 354 355 356 357 357 358 359 360 360 359 357 357 356 354 353 352 351 354 358 359 359 361 361 362 364 365 366 366 366 368 368 369 370 369 369 368 367 366 366 365 362 361 359 361 361 358 357 355 350 345 343 345 348 349 346 343 344 344 340 336 330 334 330 338 340 339 340 344 345 345 345 343 341 343 347 350 349 350 355 356 354
351 352 352 353 355 356 357 356 357 358 359 360 360 360 357 357 357 356 355 354 353 355 359 360 362 363 361 362 363 364 366 367 366 368 369 369 370 370 370 368 367 366 365 364 363 362 361 362 361 360 359 356 351 346 343 342 341 344 345 344 344 344 346 341 339 334 333 330 335 338 339 341 343 341 340 340 339 340 346 349 350 350 349 354 355
350 351 352 353 355 357 357 358 357 358 359 361 360 360 360 359 358 357 355 357 357 358 360 360 360 361 360 362 364 364 366 368 368 368 369 369 369 369 370 366 364 364 364 365 364 362 363 362 360 357 356 354 352 350 347 346 343 342 345 345 343 342 341 341 343 340 333 330 330 332 335 339 341 341 343 342 342 346 344 345 349 349 350 351 352
351 353 353 354 355 356 357 357 357 358 359 360 360 361 360 360 358 357 356 356 357 358 358 358 359 361 359 361 363 364 364 366 368 369 369 369 369 369 369 366 364 363 363 365 365 363 362 362 361 359 358 354 353 350 347 348 347 346 345 347 342 341 340 339 337 336 336 337 330 330 333 334 333 337 343 343 344 343 345 345 346 344 347 349 349
351 352 352 353 354 355 356 357 357 358 360 360 360 360 360 360 358 358 357 356 357 357 356 357 358 359 358 360 362 363 364 364 365 367 367 367 368 369 366 364 364 364 364 366 364 363 362 361 361 361 359 355 353 351 350 351 350 350 347 345 342 339 338 335 336 335 335 333 331 329 331 331 331 332 339 340 346 345 349 349 344 341 347 347 349
Wind_Speed
5 8 9 10 15 18 21 16 17 16 15 18 19 20 21 21 20 20 20 19 19 18 18 17 16 15 15 14 14 14 13 13 13 13 13 13 13 14 13 14 13 11 11 13 13 13 12 12 12 12 11 10 10 10 10 10 10 9 9 9 9 9 8 8 8 8 9 9 9 10 11 7 8 8 8 10 12 12 12 11 10 9 9 10 12
9 9 9 10 15 17 19 18 17 16 13 18 19 20 20 21 20 20 20 19 19 18 17 16 16 15 14 14 14 14 13 13 13 13 13 13 13 13 13 12 12 11 12 13 14 13 13 12 12 11 10 10 10 10 10 9 9 10 8 9 9 9 9 9 8 8 8 9 9 10 8 8 6 9 9 10 11 11 11 10 8 7 8 11 12
11 10 9 12 14 16 16 15 17 18 14 17 20 20 20 20 20 19 19 19 18 17 17 16 15 15 14 14 14 14 14 13 13 12 12 13 12 12 12 11 11 11 13 14 13 12 11 11 11 10 9 9 9 9 11 8 8 10 8 8 8 9 9 9 9 8 8 8 11 11 9 10 7 10 9 9 11 11 11 10 9 9 9 12 11
13 11 9 13 12 15 16 14 13 17 19 19 20 20 20 20 19 19 19 18 17 17 16 16 15 14 14 14 14 14 13 12 12 12 12 12 12 11 11 11 10 11 12 13 12 11 10 11 11 9 8 8 8 9 9 9 8 9 8 8 8 8 8 8 8 8 8 8 8 9 6 7 8 8 9 10 11 11 11 10 10 11 12 11 11
14 12 14 14 15 16 18 18 16 20 19 18 19 19 19 19 18 18 18 18 17 17 16 16 16 15 14 14 14 13 13 12 11 11 11 11 11 10 10 10 10 11 11 11 10 9 9 10 9 8 8 8 7 7 7 7 8 9 8 9 7 7 7 8 8 9 8 8 7 4 6 6 6 8 8 9 10 11 11 11 11 11 12 12 11
12 11 11 15 17 19 23 23 20 20 20 19 18 18 19 18 18 18 18 18 18 17 16 16 15 14 14 14 13 13 12 11 11 11 11 10 10 10 10 9 9 10 10 10 9 8 8 8 8 8 8 8 8 7 7 7 7 7 9 7 7 6 7 7 8 9 9 8 5 4 5 6 6 6 6 8 9 10 10 11 10 10 11 12 11
12 10 10 10 12 16 15 17 19 20 20 19 18 18 18 18 17 18 18 17 16 16 15 15 14 14 13 13 13 12 11 11 11 10 10 10 10 9 9 8 9 10 9 9 8 7 7 6 6 7 7 8 7 7 7 7 6 6 7 7 7 7 7 7 8 8 8 4 3 4 5 6 6 6 9 7 8 10 11 10 10 10 11 11 11
10 9 9 9 11 13 13 14 17 19 18 18 17 17 17 17 17 17 17 16 15 15 14 14 13 13 13 12 12 11 11 10 10 10 10 10 10 9 8 8 9 9 8 8 8 8 7 6 6 7 7 7 7 7 8 7 6 6 6 6 8 8 7 7 8 8 7 4 4 4 4 5 5 6 9 4 8 10 10 10 9 10 9 9 10
11 10 9 10 12 14 13 14 16 18 18 17 17 17 16 16 16 16 16 15 15 15 14 14 13 12 12 11 11 11 10 9 9 10 10 10 9 8 8 8 8 8 8 7 7 7 7 7 7 7 6 6 7 7 7 7 6 6 6 8 6 7 7 7 8 6 4 4 4 4 5 5 4 7 9 7 9 9 10 10 9 9 10 7 8
12 10 10 9 12 13 13 15 16 17 18 17 17 16 16 16 15 15 15 15 15 14 13 13 13 12 11 11 10 10 9 8 9 9 10 9 8 8 7 7 7 7 7 7 7 6 6 7 7 6 6 6 6 7 6 6 6 5 7 9 4 6 7 8 7 4 4 5 5 5 5 5 5 5 6 6 3 8 8 7 7 8 8 8 7
14 10 10 10 14 12 15 17 17 17 17 17 16 16 16 15 14 14 14 14 14 13 13 12 12 12 11 10 10 9 8 8 8 9 9 9 8 7 7 6 6 6 7 6 6 6 6 6 6 6 7 7 7 6 6 6 6 6 7 7 7 6 7 8 6 4 4 5 5 4 6 5 4 5 7 9 6 6 8 8 9 10 10 9 9
13 11 10 10 12 11 15 17 17 17 16 16 16 15 15 15 14 14 14 14 13 13 12 11 11 11 11 10 9 8 8 8 8 9 9 8 8 7 6 6 6 7 6 6 6 6 6 6 7 7 7 7 7 7 7 7 6 6 6 6 6 7 7 6 3 4 4 4 4 3 4 6 5 6 7 7 6 6 8 7 9 10 10 9 9
13 12 11 11 12 12 14 16 16 16 16 15 15 16 15 15 14 14 14 13 13 13 12 11 11 10 10 9 8 7 7 8 8 8 8 8 7 7 6 7 7 6 6 6 6 6 7 7 7 7 6 7 7 6 6 6 6 6 6 6 6 7 7 6 4 4 4 4 3 3 5 4 5 8 5 7 2 6 7 6 9 9 9 9 10
14 12 11 12 11 13 14 15 16 16 16 15 15 15 15 14 14 13 13 13 13 12 11 11 10 9 9 8 7 6 7 8 8 8 7 7 7 6 6 5 6 7 7 7 7 7 8 8 7 7 7 6 7 7 6 6 6 5 5 6 5 7 8 5 4 4 4 3 3 4 4 4 5 7 7 7 7 7 6 7 6 9 8 8 9
14 14 13 12 11 11 17 16 16 16 15 14 14 14 14 14 13 13 13 12 12 11 11 10 9 9 9 8 6 6 6 7 7 7 7 6 6 5 5 5 6 6 7 7 7 7 8 8 7 7 7 6 6 6 6 5 5 5 5 5 7 5 5 4 3 3 3 3 3 3 3 4 8 7 7 6 8 8 8 7 8 9 9 9 8
14 14 13 12 12 11 12 15 16 16 15 14 14 14 14 14 13 13 13 12 12 11 10 10 9 8 8 7 6 6 6 7 7 6 6 5 4 5 6 5 6 6 7 7 7 7 7 7 7 6 6 6 6 6 6 5 5 5 5 4 5 5 5 2 3 2 2 2 3 2 2 4 7 6 5 5 4 6 7 7 8 8 9 9 8
14 13 13 12 13 12 11 13 14 16 15 15 14 14 13 13 13 13 13 12 12 11 10 10 9 8 8 7 6 5 6 6 6 6 5 3 3 5 4 5 5 6 6 7 7 7 6 6 6 5 4 5 5 5 5 5 5 5 5 5 5 4 5 2 3 2 1 2 2 1 2 3 2 4 9 9 8 8 8 7 7 8 8 8 8
14 14 13 12 12 11 11 12 13 12 12 13 14 13 13 13 12 12 12 12 11 11 10 10 9 8 7 6 5 5 5 5 5 5 3 3 3 5 3 3 4 5 6 6 6 6 5 5 5 4 4 4 5 5 5 5 5 5 5 5 7 6 4 1 1 2 2 1 1 2 2 4 3 1 5 7 7 7 7 7 6 8 7 8 8
13 14 13 13 12 12 11 9 10 11 12 9 9 11 13 12 12 12 11 12 11 11 10 10 9 8 7 6 5 4 4 4 4 3 3 2 3 2 3 1 3 6 6 5 6 6 5 4 3 4 4 5 5 6 6 4 4 4 4 4 5 5 4 1 1 2 1 1 1 1 2 6 2 4 4 2 4 7 7 6 6 6 8 8 8
12 13 13 12 11 12 10 10 8 11 10 9 9 10 11 12 12 11 11 11 11 11 10 9 9 8 7 6 5 4 4 3 3 3 3 2 2 2 4 3 5 5 5 6 5 5 5 4 4 3 4 6 8 7 8 6 5 4 5 6 3 4 2 2 2 2 2 1 1 1 5 3 4 4 4 2 4 4 6 6 7 6 7 7 8
10 13 12 11 12 12 12 9 10 11 11 10 8 9 9 12 11 11 11 11 10 10 10 9 9 8 7 6 5 3 2 2 2 1 2 1 2 1 2 3 4 5 5 6 6 5 4 4 4 3 3 5 6 2 2 3 5 5 4 3 2 1 2 1 1 1 1 1 1 0 6 2 3 6 4 1 1 1 4 6 8 7 6 6 6
12 12 12 11 11 10 12 12 11 12 10 8 7 7 8 10 9 8 8 9 9 9 8 7 7 6 7 5 4 3 2 1 1 0 1 1 2 3 3 4 4 5 6 6 5 5 4 4 3 4 5 4 3 0 1 2 4 5 4 2 1 2 1 1 1 0 0 1 1 3 3 3 2 4 4 2 1 2 1 4 7 7 7 5 5
13 12 11 13 11 10 12 12 11 11 11 10 7 8 8 8 8 8 7 8 8 8 7 7 6 5 5 4 3 2 2 1 1 0 1 1 1 2 3 4 5 6 6 5 6 6 5 5 5 5 4 2 1 2 2 3 3 3 2 1 2 1 2 1 0 0 1 0 1 4 1 2 3 5 5 4 3 3 2 4 7 8 8 7 5
15 13 12 11 12 11 12 11 11 12 11 9 8 8 8 7 7 7 6 7 7 6 7 6 5 5 4 4 3 2 2 1 0 2 3 1 1 1 2 2 1 4 6 2 3 5 4 3 4 3 1 2 2 2 3 3 2 3 3 2 2 2 2 1 1 0 0 1 1 5 2 2 3 3 5 1 4 4 4 1 2 7 8 7 6
14 12 11 11 13 12 11 11 11 11 11 9 9 8 8 7 7 7 7 6 6 6 6 6 5 5 5 4 3 3 2 2 1 2 2 1 2 2 2 2 2 2 4 3 2 3 2 3 2 2 2 3 3 3 3 3 2 3 3 3 2 2 1 1 1 1 1 1 1 4 2 2 3 5 3 2 4 6 6 4 6 6 9 9 8
13 12 12 12 13 12 12 11 11 11 11 9 9 8 8 7 7 7 7 6 6 6 5 5 5 5 5 4 3 3 3 2 2 2 2 2 2 2 2 2 2 2 2 2 2 2 2 2 2 2 2 3 6 6 5 3 2 2 2 2 2 2 2 1 1 1 1 1 2 4 1 2 4 6 7 7 4 5 6 6 1 1 5 8 9
14 13 13 11 12 13 13 12 11 11 12 10 8 8 8 7 7 7 7 7 6 6 6 5 5 5 5 4 4 3 3 3 2 2 2 2 2 2 2 2 2 2 2 2 2 2 3 3 3 3 3 5 3 2 3 3 3 3 2 2 1 1 1 1 1 1 1 1 2 6 3 5 6 7 8 9 5 4 7 5 5 3 5 6 7
13 15 14 13 12 14 13 13 12 11 11 10 9 8 8 8 7 7 7 6 6 6 5 5 4 5 5 4 4 3 3 3 2 2 2 2 2 2 2 3 2 2 2 2 2 2 2 2 3 3 3 1 2 2 2 2 2 2 3 2 1 1 1 1 1 1 1 1 1 5 6 6 5 5 6 8 8 9 8 1 4 6 6 4 6
16 16 14 14 15 14 14 14 13 12 10 10 9 8 8 7 8 7 7 6 6 5 5 5 5 5 5 5 4 4 3 3 3 3 2 3 3 3 2 2 2 2 3 2 2 3 2 3 3 3 2 2 2 3 3 2 2 2 3 2 1 0 0 1 1 1 1 1 2 5 6 5 6 4 5 6 7 6 5 8 6 6 7 5 4
18 17 16 14 14 15 16 16 14 12 11 10 9 9 8 8 8 7 7 7 6 5 6 5 5 5 5 5 5 4 4 3 3 3 3 3 3 3 3 2 2 1 2 2 2 2 3 3 3 3 3 2 2 2 2 3 2 2 3 3 2 3 2 1 1 1 1 1 1 4 6 5 5 6 6 6 7 7 6 6 7 7 8 7 5
16 16 15 14 13 15 15 14 14 13 11 11 10 10 9 9 8 8 7 7 6 5 5 5 5 5 5 4 5 5 4 4 3 3 3 3 3 3 3 3 3 1 2 2 1 2 2 2 2 2 2 1 1 2 2 3 3 2 3 3 3 2 2 1 1 1 1 1 0 2 6 7 6 8 7 4 8 8 7 5 6 8 8 8 7
18 17 15 14 14 16 15 15 14 13 12 12 11 10 10 10 9 8 8 7 7 6 6 6 6 5 5 5 5 5 5 4 4 3 3 3 3 3 3 3 3 2 2 2 2 1 1 1 1 1 1 2 2 1 2 2 3 3 2 2 2 2 2 2 1 2 2 1 0 1 2 5 4 4 3 6 8 9 8 7 6 6 8 8 8
14 17 16 16 16 16 14 15 14 14 14 13 11 10 9 9 9 9 8 7 7 7 7 7 6 6 5 6 6 6 5 5 4 4 3 3 3 3 4 3 3 2 2 2 2 1 1 1 0 0 0 1 1 2 1 2 2 3 2 2 2 2 2 1 2 2 3 1 1 1 1 3 4 7 9 8 9 9 9 8 7 6 6 6 6
12 13 16 17 14 12 12 12 14 15 15 13 11 10 10 9 8 8 8 8 7 7 7 7 6 6 6 7 7 7 6 5 5 4 4 3 3 3 4 3 2 1 1 1 2 1 2 2 2 2 1 2 2 2 2 3 2 2 2 3 2 3 2 1 2 3 1 1 1 1 2 2 2 2 3 7 8 8 8 8 8 7 5 4 4
11 13 16 17 17 14 12 12 14 15 14 14 13 11 10 9 9 8 8 8 7 7 7 6 6 6 6 6 7 7 6 5 5 4 4 4 4 4 3 3 1 1 2 1 2 2 1 2 2 3 2 2 2 1 2 1 3 3 3 2 2 2 1 1 2 3 2 2 0 2 2 2 2 2 2 2 6 8 8 8 8 8 7 6 5
15 14 14 14 16 15 15 14 15 16 15 14 13 11 11 10 9 9 8 9 8 8 7 7 6 6 6 5 6 6 6 6 5 5 4 4 4 4 3 2 1 2 2 1 2 2 1 2 1 2 2 2 2 1 1 1 1 2 2 2 1 2 1 1 2 3 3 1 1 2 2 2 2 2 2 2 2 4 7 7 7 8 7 6 6
15 14 15 14 14 16 16 15 16 16 15 15 13 12 11 10 10 9 9 9 8 7 7 6 6 6 5 5 5 6 6 6 6 5 5 5 5 4 4 2 2 2 2 2 2 2 2 2 1 1 2 1 2 2 2 1 1 3 3 2 1 2 1 1 2 2 2 2 1 2 2 3 3 3 2 2 2 3 7 7 6 5 6 6 6
14 15 15 15 15 14 13 13 12 14 14 13 13 12 11 11 10 9 9 9 9 7 6 6 6 6 5 5 5 6 6 6 6 6 5 5 5 4 4 2 2 2 2 2 2 2 2 3 2 1 1 2 2 2 2 2 2 1 1 1 1 0 1 1 1 1 1 1 1 3 3 3 2 3 2 2 3 2 2 6 5 3 6 5 4
13 15 15 13 12 12 11 13 12 13 13 14 13 12 11 10 9 9 9 9 8 7 6 7 6 6 6 6 6 6 6 6 6 6 5 5 5 5 4 4 3 3 3 3 2 2 3 2 3 1 1 2 2 2 2 2 2 1 1 1 1 0 2 2 0 1 1 1 2 2 2 3 2 2 2 1 2 2 2 2 2 2 3 4 4
13 14 15 14 14 13 12 12 12 12 11 12 12 11 11 10 10 9 9 9 9 7 8 7 7 7 6 6 6 6 6 6 6 6 6 5 5 5 4 4 3 3 3 4 3 4 4 4 3 3 3 1 0 0 1 1 1 1 2 2 2 2 2 1 1 0 1 1 1 1 2 2 2 3 3 3 3 3 2 2 1 1 1 4 3
14 15 15 15 15 15 14 15 13 13 11 12 11 11 11 10 10 10 10 9 9 8 8 8 7 7 7 7 6 6 6 6 6 6 6 5 5 5 4 4 4 4 4 4 5 5 3 3 3 2 3 3 1 1 1 1 0 1 3 3 3 2 2 1 1 1 2 1 0 0 1 2 3 3 3 4 4 3 3 2 1 1 1 1 3
16 16 17 17 16 16 16 14 12 13 13 12 11 11 10 10 10 10 9 8 8 8 8 7 7 6 6 7 6 7 7 7 6 6 6 6 5 5 5 5 5 4 4 3 3 3 4 3 3 3 1 2 1 1 2 2 1 1 4 4 4 3 2 1 1 0 1 1 1 1 1 2 3 3 3 4 4 3 3 3 2 3 2 2 1
16 17 17 17 16 16 14 14 13 13 13 13 11 11 10 9 10 9 9 7 7 7 7 6 6 6 6 7 7 7 7 7 7 7 6 6 6 5 5 4 5 4 4 5 5 6 5 4 4 4 2 3 2 2 2 3 1 1 1 3 4 4 3 1 1 1 1 0 1 1 1 2 3 3 2 3 3 3 3 3 4 3 3 2 2
15 16 17 19 15 15 15 15 14 14 13 13 12 11 10 9 9 7 8 7 6 6 6 5 6 7 8 8 7 8 8 7 7 7 6 6 6 6 5 5 5 5 5 5 6 6 5 5 5 5 4 3 3 2 2 2 1 3 4 2 2 2 3 4 3 1 1 0 2 2 2 1 2 3 2 2 3 3 3 4 4 3 2 2 2
16 16 17 16 13 17 17 17 14 15 13 13 14 11 10 9 8 7 6 7 5 5 6 7 8 7 7 7 8 8 8 8 7 8 7 7 6 6 6 5 5 5 5 6 6 6 6 5 5 4 5 5 3 2 2 3 2 0 1 3 3 3 2 3 4 1 1 3 3 3 3 2 2 2 2 2 2 1 2 4 4 3 3 2 1
17 17 17 17 16 15 16 15 13 13 13 14 14 12 11 11 11 11 11 10 9 9 10 10 9 9 9 7 7 8 8 8 7 7 7 6 7 7 7 6 6 5 5 6 6 5 6 6 5 5 5 5 4 2 3 3 2 3 2 1 3 3 1 2 3 3 0 1 1 2 2 3 2 2 2 2 2 1 1 2 2 3 3 2 2
19 16 16 17 17 15 16 16 14 13 13 13 16 12 12 11 14 14 12 12 11 9 8 9 9 8 7 8 7 7 8 8 8 7 7 7 7 7 7 7 6 6 5 6 7 7 6 6 4 5 5 4 4 4 4 4 4 2 3 2 2 2 1 4 3 2 4 2 1 3 4 3 3 3 3 3 3 2 1 1 2 1 2 2 2
19 16 16 16 18 17 17 17 14 13 13 13 16 14 14 13 14 13 12 12 12 10 10 9 8 7 8 9 7 7 8 8 8 7 8 8 7 7 7 6 6 6 6 6 7 7 5 4 5 5 4 4 5 5 5 4 4 3 3 3 3 2 2 3 2 3 2 3 4 3 3 4 4 4 4 4 4 2 1 1 1 1 1 2 2
18 18 17 17 17 16 16 16 15 15 14 16 16 16 14 14 13 12 12 11 10 9 7 8 8 8 9 8 8 8 7 8 8 8 8 8 8 8 8 8 9 9 8 7 7 7 7 6 6 5 5 5 5 5 5 4 5 4 4 3 3 3 3 3 2 3 3 4 4 6 5 3 4 5 4 5 3 2 3 2 1 1 1 2 2
18 17 17 15 14 14 15 17 17 14 14 17 16 17 17 13 13 13 14 11 10 8 8 9 9 8 10 10 8 8 8 8 8 8 8 9 8 8 8 9 10 9 9 7 7 7 7 7 6 6 6 6 5 5 6 4 4 3 4 3 4 3 2 3 4 5 3 3 3 4 5 6 6 5 5 5 5 4 3 2 3 3 2 2 2
16 16 16 15 14 15 15 17 17 14 14 16 17 18 17 15 14 15 15 14 12 11 9 9 9 9 10 10 9 8 7 8 8 8 9 9 9 8 9 10 9 9 9 7 8 7 7 7 6 6 7 7 6 6 6 5 3 3 4 4 4 4 4 4 4 4 4 3 4 5 5 6 5 4 4 3 3 4 3 3 4 4 3 3 2
Wind_Direction
118 116 134 132 120 123 125 121 115 118 124 121 122 124 126 124 122 124 125 125 124 125 126 126 125 127 125 121 119 118 115 111 107 106 104 101 100 99 99 101 110 110 104 95 92 90 90 87 84 83 87 91 96 99 99 99 100 101 100 98 98 98 97 96 95 98 99 104 100 101 112 120 108 113 119 118 112 111 109 111 117 111 107 107 108
129 123 129 130 126 126 125 122 119 121 125 124 126 126 126 123 123 123 124 124 123 125 124 124 126 125 122 121 118 115 110 107 106 105 104 101 98 97 97 99 98 95 91 86 79 77 77 79 80 80 78 87 90 92 91 91 97 95 97 97 95 93 91 90 88 91 94 105 105 101 101 99 108 112 110 112 112 110 109 108 111 113 101 109 112
125 135 130 138 133 126 122 126 126 125 142 134 131 126 122 122 122 123 123 122 123 123 122 125 125 124 123 120 117 113 109 108 106 104 101 97 95 93 92 91 89 86 79 78 75 71 71 71 73 77 79 79 86 91 94 96 102 104 97 93 91 89 87 82 79 77 86 91 105 110 115 111 126 112 115 118 114 113 112 109 101 101 106 114 115
137 136 126 140 145 135 127 124 140 143 143 136 129 123 122 122 121 120 120 121 123 123 125 127 126 125 122 119 115 111 107 105 102 99 96 95 93 92 91 87 83 79 80 79 77 75 74 70 71 70 79 86 89 99 110 108 104 101 98 95 88 88 87 91 93 90 90 92 99 126 126 123 116 112 121 117 118 115 111 108 102 101 115 113 111
138 139 137 150 146 147 144 151 167 144 138 131 125 122 121 120 119 119 121 123 124 125 126 127 126 124 121 118 112 108 106 105 103 99 97 94 93 91 86 81 80 77 78 84 82 80 77 75 76 77 74 81 90 91 96 101 101 105 117 102 93 85 86 89 92 97 88 80 85 124 110 108 107 107 102 108 113 111 111 108 110 117 117 117 116
141 142 142 146 150 154 159 157 149 136 133 129 127 123 122 121 121 122 123 126 126 126 127 125 124 122 120 115 111 110 109 107 104 100 98 97 94 90 90 90 80 78 77 77 83 85 82 78 73 75 74 74 76 85 93 96 102 105 99 105 100 84 79 87 91 89 89 88 107 102 98 100 103 100 121 120 115 112 113 111 114 118 119 120 119
140 140 142 145 148 143 142 139 135 132 131 131 128 124 123 122 123 125 126 126 126 126 125 125 123 123 118 114 114 114 111 107 104 103 101 97 92 88 83 85 87 82 81 82 81 79 80 83 78 76 73 68 69 75 81 86 91 90 95 97 90 92 95 90 88 92 93 113 97 104 110 114 130 121 126 117 115 116 116 117 121 120 120 122 130
141 142 142 144 142 139 139 134 132 130 131 129 128 126 124 125 125 126 127 126 126 127 127 126 125 122 117 116 117 115 111 109 109 104 97 90 86 86 87 80 76 78 77 75 71 72 81 84 72 69 68 64 65 67 71 75 77 80 88 89 100 96 101 103 96 92 89 90 91 93 106 118 111 112 100 103 128 120 116 119 121 121 120 119 118
144 143 144 145 139 139 138 135 132 131 131 132 130 128 127 127 128 128 127 127 128 129 129 128 127 122 119 120 119 113 112 113 111 104 96 89 82 77 74 74 75 74 73 73 71 72 79 79 76 74 78 77 72 72 74 79 79 81 82 79 87 110 110 108 104 110 107 87 101 101 111 107 122 104 121 167 130 119 119 121 124 120 110 117 118
144 145 147 145 144 142 141 136 133 132 132 133 132 131 130 129 129 128 129 130 131 131 131 130 127 124 125 124 117 115 118 116 110 99 93 88 82 77 73 71 72 73 73 71 74 73 68 73 88 87 82 74 71 74 79 83 85 88 95 96 75 80 106 110 108 86 91 98 95 101 105 110 104 112 131 108 113 117 119 110 96 109 125 123 94
146 147 150 147 145 146 146 141 136 135 135 135 135 134 133 131 132 132 132 133 133 133 133 130 127 127 127 122 119 120 121 114 104 96 91 88 85 81 75 67 64 71 73 71 70 68 73 74 77 83 83 78 71 70 73 75 82 89 97 111 120 112 113 115 124 105 89 98 98 94 107 116 101 111 135 129 147 125 107 106 108 109 107 108 122
149 148 150 147 145 153 149 143 139 138 138 138 138 137 136 135 136 136 135 134 135 135 134 131 129 131 128 123 122 125 121 113 102 94 89 87 85 81 78 71 60 58 67 75 73 69 68 77 77 80 82 77 72 71 70 71 65 70 75 87 104 109 109 121 115 102 108 109 94 91 110 111 115 114 123 128 117 107 107 110 112 109 106 104 103
152 152 149 147 154 153 151 145 141 141 142 142 140 139 138 139 140 140 138 137 137 137 136 134 133 133 128 124 128 129 120 111 99 93 88 85 82 78 75 71 67 66 67 67 68 67 65 66 76 81 79 78 78 74 70 70 67 64 60 67 93 100 111 113 116 111 110 108 98 98 102 93 108 113 135 98 108 116 120 127 115 111 107 103 102
153 155 153 152 154 154 155 148 145 145 146 145 143 140 140 143 145 144 142 140 140 139 137 137 136 135 129 127 134 131 121 109 99 93 88 82 77 77 68 68 67 65 62 61 63 61 62 68 77 83 82 73 71 74 72 71 71 61 65 70 74 98 110 114 104 108 108 112 98 103 103 96 92 126 118 149 157 137 124 108 114 115 111 108 105
156 157 155 153 153 157 156 152 150 150 149 146 144 143 145 147 149 147 144 142 141 140 140 137 137 138 132 134 141 136 123 109 102 95 88 83 80 76 70 61 66 68 69 62 61 65 64 71 80 88 84 75 75 82 77 68 68 68 67 67 87 102 104 108 103 105 110 106 107 113 117 106 107 150 158 161 162 138 136 139 138 116 115 113 106
158 159 157 157 156 154 159 156 154 153 152 150 148 149 150 150 150 149 147 145 145 145 142 140 141 142 140 143 150 140 126 113 104 99 90 84 77 69 55 58 66 71 71 64 62 73 68 73 85 86 78 71 77 82 79 80 71 71 73 75 63 89 110 90 111 104 102 111 111 116 124 109 106 133 136 141 165 136 133 150 124 125 121 114 108
161 161 161 160 159 159 164 161 159 156 157 156 154 154 153 152 153 151 149 148 149 147 145 146 147 148 147 151 156 144 128 117 107 100 94 85 79 83 71 51 55 71 73 66 69 78 82 76 78 77 72 72 74 76 76 74 76 73 69 60 51 59 100 120 102 116 76 76 104 139 134 130 89 149 164 167 150 156 147 139 133 126 120 116 114
165 166 164 160 166 165 163 165 160 162 160 160 158 158 157 156 155 154 153 152 152 152 151 153 155 155 155 161 162 150 130 118 113 103 100 92 74 67 68 43 45 75 74 75 74 83 79 77 70 67 62 61 60 65 68 69 76 72 81 71 59 56 86 105 90 96 88 92 130 139 151 93 31 288 164 148 154 139 143 142 137 123 127 124 121
168 170 166 164 168 167 167 161 170 167 163 166 164 163 163 161 159 159 156 155 157 158 158 158 162 163 162 171 167 155 132 125 120 121 113 102 89 106 58 29 46 66 73 73 76 79 74 72 70 67 56 47 44 34 42 53 52 54 73 75 85 74 74 38 77 89 95 212 141 144 115 68 33 37 38 348 134 142 142 144 139 139 138 127 128
171 173 170 170 169 171 170 170 176 170 166 168 168 168 168 166 165 164 161 161 164 164 164 164 167 170 172 173 173 165 151 142 138 150 136 123 96 359 61 358 57 62 61 67 69 69 66 67 66 65 42 55 38 13 22 7 43 36 26 70 55 83 77 54 87 113 102 351 312 167 101 100 84 141 169 81 160 172 150 151 143 146 132 138 132
175 178 175 173 171 171 171 174 178 173 169 170 170 172 172 172 171 170 168 168 170 170 168 169 172 174 181 175 177 188 152 142 156 145 154 136 53 349 42 22 35 52 55 56 63 69 68 53 58 52 49 54 86 21 35 321 31 30 23 19 78 66 47 53 60 106 174 158 254 99 105 126 129 143 165 119 104 275 178 153 152 146 139 134 138
178 179 179 177 172 173 176 180 176 174 173 172 174 177 174 181 178 176 177 175 177 176 173 178 178 178 183 176 190 171 174 159 156 170 168 81 121 7 358 12 32 44 51 56 56 59 61 61 58 58 51 37 84 260 103 49 51 23 27 6 355 45 39 35 39 73 230 207 231 86 142 139 145 128 133 147 209 318 66 189 152 154 128 169 147
180 181 181 181 178 173 180 180 176 174 175 178 179 180 181 182 181 181 180 184 181 184 180 180 186 184 185 184 184 184 172 186 184 318 331 321 319 353 350 18 28 36 42 48 47 39 34 38 49 55 54 34 300 41 22 33 55 79 49 9 30 15 25 22 308 150 235 316 256 90 216 174 147 147 152 189 171 227 297 259 165 154 160 154 179
181 183 181 182 183 180 180 181 177 177 180 182 183 184 185 185 185 185 185 186 187 187 186 185 185 186 187 193 192 184 199 200 214 254 267 271 127 263 343 330 24 47 17 30 47 53 12 43 45 8 17 7 27 15 37 41 42 42 41 19 21 15 343 6 349 290 285 143 277 114 121 194 154 104 132 207 224 214 230 244 256 163 171 160 169
181 180 181 183 186 181 181 182 181 181 184 185 186 188 187 191 187 189 191 190 190 190 188 188 187 188 192 198 202 193 212 233 233 263 285 319 328 336 341 13 21 33 14 29 15 27 9 19 17 6 11 360 9 21 13 25 42 35 32 14 359 348 321 315 321 317 282 172 168 135 143 151 166 141 133 269 267 227 213 207 219 199 174 176 170
180 183 185 183 186 184 184 182 184 186 187 189 190 187 189 194 190 191 194 195 196 195 192 194 191 194 199 206 205 203 220 226 236 254 274 288 297 323 342 3 358 17 16 14 20 2 358 13 359 355 357 3 11 15 354 3 19 25 26 15 351 324 317 313 313 276 296 270 127 147 183 151 150 153 174 189 204 263 249 226 147 301 254 171 179
182 187 183 186 186 188 187 185 187 188 189 192 190 192 194 196 195 192 196 197 198 198 200 199 198 197 204 206 215 210 223 236 231 247 265 278 292 303 334 333 345 6 27 350 13 10 353 355 353 350 14 30 353 349 10 334 21 7 19 8 354 306 301 308 286 243 257 241 116 130 183 206 174 177 198 173 146 256 249 242 134 237 261 237 194
183 185 184 185 187 189 188 188 190 189 189 192 193 195 195 198 198 194 202 196 201 203 205 203 202 205 207 212 225 232 230 236 248 249 252 264 278 303 313 315 333 347 9 333 3 9 354 344 336 347 27 51 346 351 11 324 27 8 10 22 358 309 267 299 313 274 219 201 213 134 187 199 185 214 217 166 134 206 218 121 230 204 224 273 266
187 186 184 187 189 189 188 192 190 190 191 190 195 197 196 200 201 202 202 197 207 207 206 207 210 214 207 214 220 228 232 243 249 256 267 269 278 288 296 305 313 332 347 351 357 356 348 345 348 339 35 7 348 354 346 360 337 23 8 25 14 104 257 267 287 274 249 220 198 129 175 179 197 216 259 155 150 218 204 183 214 187 223 221 236
190 186 185 190 189 189 192 193 193 192 193 193 197 198 197 201 203 204 201 201 210 209 208 214 218 217 215 215 221 232 239 242 245 258 267 273 281 287 283 281 299 314 328 343 5 351 346 339 341 339 6 358 338 352 334 344 353 15 6 350 2 16 39 305 266 260 259 231 193 124 155 163 190 130 255 186 146 193 215 197 205 204 206 199 213
188 188 190 191 189 190 192 193 194 194 195 199 199 200 201 204 202 204 205 206 206 207 213 219 221 222 223 215 224 229 239 242 246 251 261 269 277 288 295 307 300 327 334 329 4 351 345 334 340 342 345 2 331 350 334 338 351 356 10 346 360 358 22 9 297 211 270 259 212 118 127 145 189 208 206 165 159 176 201 209 213 207 212 196 205
190 192 191 191 191 191 192 193 194 194 197 201 200 203 204 205 203 206 208 210 207 212 215 218 220 224 224 223 226 232 234 239 241 243 249 261 274 288 300 306 311 323 327 331 335 355 329 2 2 355 1 344 325 324 358 336 347 359 337 12 356 347 359 4 314 34 6 18 112 129 145 133 160 192 135 175 179 172 185 196 214 234 214 208 196
191 192 191 192 193 192 192 193 195 195 198 200 201 205 204 205 205 208 210 209 211 214 219 220 221 222 223 225 226 229 234 239 235 236 240 256 265 277 283 287 297 314 329 330 316 299 284 294 48 84 338 280 318 4 35 10 0 10 333 26 354 357 6 353 21 26 10 39 112 165 163 129 164 134 177 183 191 187 189 187 207 219 229 215 196
182 186 190 193 191 191 193 195 197 198 198 201 202 204 204 204 206 208 210 210 214 216 220 222 221 223 223 223 226 229 232 233 235 228 241 253 257 263 272 281 290 304 305 279 286 294 302 311 336 321 319 317 335 18 57 8 344 358 358 27 0 4 350 33 28 34 20 39 90 159 142 121 111 121 132 167 184 193 199 199 204 213 210 191 182
178 181 186 188 190 190 192 196 197 200 198 201 202 204 203 205 204 208 209 211 213 219 221 222 222 224 223 221 222 225 226 226 225 234 239 249 258 260 259 266 274 283 269 242 282 289 271 276 301 308 321 319 343 36 33 96 352 360 23 14 3 7 14 51 37 44 28 45 55 98 111 110 108 124 135 124 173 191 199 203 205 209 210 195 171
185 180 179 181 187 190 193 197 196 200 201 202 203 204 204 206 207 207 210 209 215 219 221 223 221 219 217 212 206 212 216 218 222 222 238 241 252 259 259 263 234 257 253 241 246 258 255 269 285 295 307 337 349 340 12 54 303 340 11 24 29 18 45 32 39 47 27 10 69 90 97 99 108 99 93 93 97 151 193 209 219 215 211 204 157
185 179 181 181 183 190 194 196 195 197 201 202 203 204 205 206 207 207 209 210 215 215 218 220 220 217 214 216 203 205 216 217 218 217 228 239 243 251 257 238 224 246 245 234 248 263 264 274 266 271 307 303 297 331 336 343 29 357 325 32 55 31 51 23 31 51 23 346 67 82 75 90 94 109 119 101 88 113 170 211 216 228 228 220 173
188 186 183 182 185 186 189 195 193 194 198 202 203 204 206 207 209 213 213 215 215 214 213 212 217 220 216 218 207 207 215 218 216 215 223 237 245 250 257 224 223 226 233 232 251 255 265 280 278 217 276 285 305 328 323 338 340 286 311 16 54 65 72 50 30 58 10 23 40 49 50 47 57 64 68 79 92 97 121 176 203 209 247 230 201
189 189 187 185 184 188 187 190 192 193 194 201 201 205 207 210 213 215 216 219 223 219 217 215 218 219 223 215 206 212 218 218 216 212 221 228 232 235 237 215 211 211 215 224 220 236 260 268 268 248 216 303 322 336 2 341 305 299 255 53 82 132 119 96 102 7 310 350 27 37 58 61 57 65 69 90 106 107 110 95 154 181 199 186 232
189 187 187 185 185 185 187 188 192 189 188 198 199 203 206 207 210 212 218 221 222 219 219 223 218 218 217 210 210 214 217 219 216 213 219 225 233 233 228 207 203 204 208 219 220 234 231 231 240 261 268 271 331 62 136 258 264 310 42 89 91 108 107 117 128 326 284 270 16 21 42 76 61 47 54 52 48 72 89 107 135 162 158 149 208
189 186 185 188 189 189 187 193 190 187 185 193 195 198 199 202 207 207 211 209 214 217 220 220 217 218 212 211 210 216 217 219 219 216 219 222 230 235 222 214 205 205 210 225 241 257 249 268 262 252 285 298 160 159 133 204 322 124 103 116 114 82 109 71 39 265 296 314 306 13 53 62 67 68 67 58 56 64 78 82 79 98 125 106 169
193 187 189 190 191 192 194 193 188 188 192 191 190 194 196 195 196 203 205 206 203 210 215 214 215 214 206 205 211 219 218 217 218 217 221 221 224 223 221 218 202 205 209 216 220 227 232 232 239 255 244 272 258 186 120 215 159 71 144 130 118 124 79 82 202 246 307 314 221 153 87 62 72 77 75 84 82 76 79 81 74 72 68 103 88
194 193 192 190 190 192 195 190 190 190 194 191 189 192 190 190 192 193 198 202 207 208 212 211 206 211 209 209 213 215 214 217 218 215 217 217 221 222 222 215 208 201 199 208 221 225 230 225 229 254 246 180 228 165 174 257 90 118 75 165 153 167 137 162 172 53 6 354 209 179 86 85 80 82 65 76 87 87 76 74 72 62 48 31 61
197 196 195 193 190 193 192 191 192 192 191 192 192 189 185 183 188 191 192 203 198 199 207 208 210 215 219 210 210 214 212 219 215 213 212 213 212 220 224 214 208 204 213 227 229 237 225 224 227 231 251 265 225 164 153 185 213 168 180 188 128 227 176 180 184 85 16 83 180 175 137 136 113 92 96 69 75 80 97 102 105 99 83 39 36
199 199 197 195 196 195 193 191 191 192 192 190 186 181 176 180 186 194 198 207 217 203 202 217 216 213 216 211 212 209 214 218 217 212 212 212 212 219 219 216 210 203 214 232 240 239 232 231 226 224 219 260 265 187 147 176 165 324 133 160 160 199 222 133 187 97 251 175 169 179 146 188 145 121 106 87 69 88 108 119 127 132 136 131 119
202 201 199 198 197 197 194 192 192 192 192 188 182 179 180 183 183 196 203 207 210 208 209 210 207 206 211 212 205 205 211 216 217 214 212 211 212 214 215 214 209 204 208 229 240 236 233 226 211 223 229 215 252 243 180 143 150 158 199 318 346 11 161 130 218 166 84 295 182 192 168 194 176 170 167 154 149 136 144 120 141 148 152 152 134
206 200 199 200 198 195 193 191 193 192 190 186 182 183 185 188 191 195 197 198 202 207 204 203 201 199 199 203 197 196 204 213 218 212 210 209 212 212 210 212 212 210 204 222 233 233 233 219 195 204 226 202 196 228 217 172 132 150 180 217 238 236 149 167 200 123 186 182 271 216 192 201 206 205 199 207 167 181 143 131 150 150 149 170 164
203 198 200 200 198 195 190 192 194 192 188 184 184 187 189 192 194 196 198 201 203 198 190 191 193 191 199 207 204 199 196 206 214 206 207 207 208 211 207 208 217 214 211 215 229 233 228 200 195 206 201 194 201 220 224 196 196 158 169 179 177 155 189 237 229 234 264 200 201 227 233 216 222 225 226 210 203 178 213 227 193 194 189 176 191
199 200 201 199 197 194 191 192 195 192 188 184 186 191 193 193 193 194 200 206 203 200 188 190 193 196 205 201 202 198 191 196 203 204 200 205 205 210 206 219 232 233 230 225 229 225 211 195 189 192 196 197 204 215 220 210 213 189 163 173 178 182 185 202 178 218 225 223 215 198 206 197 240 235 231 233 219 202 217 224 261 270 213 201 208
201 203 202 199 199 196 195 193 197 194 190 187 189 192 194 192 195 199 202 199 195 197 195 193 195 191 203 204 201 199 198 196 198 199 196 201 206 207 207 218 230 232 229 222 218 213 207 205 202 202 199 203 194 205 216 217 210 218 206 174 180 173 185 182 194 196 196 241 244 216 212 202 217 222 220 231 227 221 220 234 255 242 245 240 222
200 203 201 201 200 198 198 199 200 195 192 190 190 194 196 197 200 200 202 200 193 190 191 199 196 194 202 204 200 200 199 201 198 194 198 203 208 208 218 227 231 230 229 217 222 213 202 204 205 201 199 203 199 202 213 219 206 198 203 203 207 208 207 218 211 211 215 189 219 237 217 221 243 233 203 242 246 231 218 227 243 248 251 247 240